Location: Newark
(39.2833°N, 16.3333°E)
Time: 22:24:12
(UTC+00:00)

OTV 5 (USA 277) - Visible Passes

Search period start: 20 October 2019 00:00
Search period end: 30 October 2019 00:00
Orbit: 310 x 324 km, 54.5° (Epoch: 17 October)

Date Brightness Start Highest point End Pass type
(mag) Time Alt. Az. Time Alt. Az. Time Alt. Az.
20 Oct ? 03:34:07 35° NNE 03:34:28 37° NE 03:37:03 10° ESE visible
21 Oct ? 03:48:52 64° WSW 03:49:02 66° SW 03:51:44 10° SE visible
22 Oct ? 04:03:45 20° SW 04:03:45 20° SW 04:05:33 10° S visible
27 Oct ? 16:50:54 10° SSE 16:52:40 16° SE 16:53:07 15° ESE visible
28 Oct ? 17:04:24 10° SSW 17:07:02 47° SE 17:07:46 35° E visible
29 Oct ? 17:18:54 10° WSW 17:21:34 49° NW 17:22:16 36° N visible
